If you wish to contribute or participate in the discussions about articles you are invited to join SKYbrary as a registered user

 Actions

Kalaeloa Airport

From SKYbrary Wiki

PHJR
Airport
ICAO: PHJR – IATA: JRF
Summary
Name Kalaeloa Airport
Region North America
Territory Hawaii US.gif
Location Kapolei, Hawaii
Serving Kapolei
Elevation 9.144 m
30 ft
30 ft9.144 m
Type medium airport
Coordinates 21° 18' 26.00" N, 158° 4' 13.00" W
Runways
Designator Length Width Surface ROPS
04L/22R 1372 m4,501.312 ft
61 m200.131 ft
ASP /
04R/22L 2438 m7,998.688 ft
61 m200.131 ft
ASP /
11/29 1829 m6,000.656 ft
61 m200.131 ft
ASP /


METAR
Observation PHJR 181953Z 12009G16KT 10SM CLR 31/22 A2995 RMK AO2 SLP148 T03060217
Station Oahu, Kalaeloa Airport
Date/Time 18 September 2019 19:53:00
Wind direction 120°
Wind speed 09 kts
Lowest cloud amount n/a
Temperature 30.6°C
Dew point 21.7°C
Humidity 59%
QNH hPa
Weather condition n/a

Maps

Terrain

Loading map...

Airport Layout

Loading map...


Accidents & Serious Incidents at or in vicinity of PHJR

None on SKYbrary